This is the latest recevied weather packets stored in our database for station/object N7ZAP. If no packets are shown the sender has not sent any weather packets the latest 10 day(s).
| Time | Temp. | Humidity | Pressure | Rain* | Wind** | Luminosity | Snow |
|---|---|---|---|---|---|---|---|
| 1777830762 | 18.89° C | 39% | 1021.8 hPa | 0 mm | - | - | - |
| 1777830458 | 18.89° C | 39% | 1021.7 hPa | 0 mm | - | - | - |
| 1777830156 | 18.89° C | 40% | 1021.8 hPa | 0 mm | - | - | - |
| 1777829856 | 18.89° C | 39% | 1022.1 hPa | 0 mm | - | - | - |
| 1777829552 | 18.89° C | 38% | 1021.9 hPa | 0 mm | - | - | - |
| 1777829249 | 19.44° C | 38% | 1022 hPa | 0 mm | - | - | - |
| 1777828946 | 18.89° C | 39% | 1022.1 hPa | 0 mm | - | - | - |
| 1777828643 | 18.33° C | 42% | 1022 hPa | 0 mm | - | - | - |
| 1777828340 | 17.78° C | 44% | 1022.4 hPa | 0 mm | - | - | - |
| 1777828037 | 17.78° C | 42% | 1022.3 hPa | 0 mm | - | - | - |
| 1777827734 | 17.22° C | 45% | 1022.7 hPa | 0 mm | - | - | - |
| 1777827431 | 16.67° C | 45% | 1022.5 hPa | 0 mm | - | - | - |
| 1777827128 | 16.67° C | 46% | 1022.6 hPa | 0 mm | - | - | - |
| 1777826824 | 16.67° C | 46% | 1022.7 hPa | 0 mm | - | - | - |
| 1777826521 | 16.67° C | 46% | 1022.6 hPa | 0 mm | - | - | - |
| 1777826217 | 16.67° C | 47% | 1022.7 hPa | 0 mm | - | - | - |
| 1777825915 | 16.67° C | 46% | 1022.7 hPa | 0 mm | - | - | - |
| 1777825612 | 16.11° C | 48% | 1022.7 hPa | 0 mm | - | - | - |
| 1777825310 | 15.56° C | 49% | 1022.6 hPa | 0 mm | - | - | - |
| 1777825007 | 15.56° C | 49% | 1022.7 hPa | 0 mm | - | - | - |
| 1777824702 | 15.56° C | 50% | 1022.7 hPa | 0 mm | - | - | - |
| 1777824400 | 15.56° C | 50% | 1022.6 hPa | 0 mm | - | - | - |
| 1777824096 | 15° C | 52% | 1022.8 hPa | 0 mm | - | - | - |
| 1777823792 | 15° C | 52% | 1022.8 hPa | 0 mm | - | - | - |
| 1777823489 | 14.44° C | 53% | 1022.7 hPa | 0 mm | - | - | - |
* Rain latest hour (hover to see other rain measurements)
** Current wind speed in m/s (hover to see current wind gust speed)